Orbital Elements at Epoch 2459200.5 (2020-Dec-17.0) TDB
Reference: JPL 11 (heliocentric ecliptic J2000)
Element | Value | Uncertainty (1-sigma) | Units |
e | .05217468654356545 | 6.7164e-08 | |
a | 2.706871479180641 | 2.09e-08 | au |
q | 2.565641308240674 | 1.852e-07 | au |
i | 4.851143007914105 | 6.1614e-06 | deg |
node | 215.959331151224 | 8.3054e-05 | deg |
peri | 341.1525796247938 | 0.00010643 | deg |
M | 339.5897730327648 | 6.3918e-05 | deg |
tp | 2459292.724267524050 (2021-Mar-19.22426752) | 0.0002887 | TDB |
period | 1626.671587824848 4.45 | 1.8839e-05 5.158e-08 | d yr |
n | .2213108058777769 | 2.5631e-09 | deg/d |
Q | 2.848101650120609 | 2.199e-08 | au |
|
| | Orbit Determination Parameters
Additional Information
|